Location: Maddington
(51.2000°N, 1.9167°W)
Time: 15:54:09
(UTC+00:00)

Cosmos 1125 Rocket - Pass Details

Date: 23 June 2021
Orbit: 757 x 780 km, 74.0° (Epoch: 25 July)

Event Time Altitude Azimuth Distance (km) Brightness Sun altitude
Rises 02:35:41 0° 330° (NNW) 3,248 7.1 -8.8°
Reaches altitude 10° 02:38:11 10° 323° (NW) 2,321 6.3 -8.6°
Maximum altitude 02:43:02 39° 256° (WSW) 1,155 4.1 -8.1°
Drops below altitude 10° 02:47:53 10° 189° (S) 2,319 5.4 -7.7°
Enters shadow 02:49:13 - 184° (S) 2,808 5.9 -7.6°
